Ana Sayfa
METAR-TAF:

METAR-TAF

Havaalanları :

Burlington-Alamance Regional Airport

Burlington, Kuzey Carolina, Amerika Birleşik Devletleri

Enlem: 36-02-52N, Boylam: 079-28-26W, yükseklik: 188 m

Güncel hava durumu gözlemi

Rapor saat 04:54 UTC de 32 dakika önce yapıldı.
Sakin rüzgar
Sıcaklık -2°C
Nem 93%
Basınç 1034 hPa
Görüş mesafesi: 16.1 km
Açık gökyüzü

METAR: KBUY 120454Z AUTO 00000KT 10SM CLR M02/M03 A3053 RMK AO2 SLP342 I1000 T10171033 400891022

Saat: 00:26 (05:26 UTC)


TAF: eksik

4.000'den fazla havaalanı için hava durumu gözlemleri ve tahminleri (METAR ve TAF raporları).

Kullanılabilir istasyonlar harita üzerinde sarı ve kırmızı noktalarla gösterilir.

İstasyonun adını görmek için fareyi noktanın üzerinde gezdirin.

Sonrasında hava gözlem ve tahminlerini görmek için tıklayın.

Haritayı değiştirmek için: yaklaştırmak için siyah artı işaretli yeşil düğmeye ve uzaklaştırmak için de eksi işaretli düğmeye hızla tıklayın; bitişik haritalar için yeşil okları kullanın.


METAR-TAF: